Hourly Weather Rusakov

Today, 14 April, Wednesday

Time Temperature Precipitation Wind Pressure Humidity
00:00 +12°C° 0 mm 3 mps 759 mmHg 48%
01:00 +11°C° 0 mm 3 mps 759 mmHg 49%
02:00 +11°C° 0 mm 3 mps 758 mmHg 50%
03:00 +10°C° 0 mm 4 mps 758 mmHg 52%
04:00 +10°C° 0 mm 3 mps 758 mmHg 54%
05:00 +10°C° 0 mm 3 mps 758 mmHg 56%
06:00 +9°C° 0 mm 3 mps 757 mmHg 58%
07:00 +12°C° 0 mm 4 mps 757 mmHg 51%
08:00 +14°C° 0 mm 4 mps 757 mmHg 44%
09:00 +16°C° 0 mm 5 mps 757 mmHg 37%
10:00 +17°C° 0 mm 5 mps 757 mmHg 35%
11:00 +19°C° 0 mm 5 mps 756 mmHg 34%
12:00 +20°C° 0 mm 4 mps 756 mmHg 32%
13:00 +20°C° 0 mm 5 mps 756 mmHg 32%
14:00 +21°C° 0 mm 5 mps 755 mmHg 31%
15:00 +21°C° 0 mm 6 mps 755 mmHg 30%
16:00 +20°C° 0 mm 4 mps 755 mmHg 35%
17:00 +19°C° 0 mm 3 mps 755 mmHg 40%
18:00 +18°C° 0 mm 2 mps 755 mmHg 45%
19:00 +17°C° 0 mm 2 mps 755 mmHg 48%
20:00 +16°C° 0 mm 1 mps 755 mmHg 51%
21:00 +15°C° 0 mm 1 mps 755 mmHg 54%
22:00 +15°C° 0 mm 1 mps 755 mmHg 54%
23:00 +15°C° 0 mm 1 mps 755 mmHg 54%

Tomorrow, 15 April, Thursday

Time Temperature Precipitation Wind Pressure Humidity
00:00 +15°C° 0 mm 2 mps 754 mmHg 55%
01:00 +14°C° 0 mm 2 mps 754 mmHg 58%
02:00 +13°C° 0 mm 2 mps 754 mmHg 61%
03:00 +13°C° 0 mm 2 mps 754 mmHg 65%
04:00 +12°C° 0 mm 2 mps 754 mmHg 67%
05:00 +12°C° 0 mm 1 mps 754 mmHg 69%
06:00 +12°C° 0 mm 1 mps 754 mmHg 72%
07:00 +13°C° 0 mm 1 mps 755 mmHg 68%
08:00 +14°C° 0 mm 1 mps 755 mmHg 64%
09:00 +15°C° 0 mm 1 mps 755 mmHg 60%
10:00 +16°C° 0 mm 2 mps 755 mmHg 56%
11:00 +17°C° 0 mm 2 mps 755 mmHg 53%
12:00 +18°C° 0 mm 2 mps 754 mmHg 50%
13:00 +19°C° 0 mm 2 mps 754 mmHg 48%
14:00 +20°C° 0 mm 1 mps 754 mmHg 47%
15:00 +20°C° 0 mm 1 mps 754 mmHg 46%
16:00 +19°C° 0 mm 1 mps 754 mmHg 50%
17:00 +19°C° 0 mm 1 mps 754 mmHg 53%
18:00 +18°C° 0 mm 1 mps 754 mmHg 57%
19:00 +16°C° 0 mm 1 mps 754 mmHg 58%
20:00 +16°C° 0 mm 1 mps 754 mmHg 59%
21:00 +15°C° 0 mm 1 mps 755 mmHg 60%
22:00 +14°C° 0 mm 2 mps 754 mmHg 63%
23:00 +14°C° 0 mm 2 mps 754 mmHg 66%

Day after tomorrow, 16 April, Friday

Time Temperature Precipitation Wind Pressure Humidity
00:00 +13°C° 0 mm 2 mps 754 mmHg 69%
01:00 +13°C° 0 mm 2 mps 754 mmHg 71%
02:00 +12°C° 0 mm 2 mps 755 mmHg 73%
03:00 +11°C° 0 mm 3 mps 755 mmHg 75%
04:00 +12°C° 0 mm 2 mps 755 mmHg 76%
05:00 +12°C° 0 mm 2 mps 755 mmHg 77%
06:00 +12°C° 0 mm 2 mps 755 mmHg 78%
07:00 +13°C° 0 mm 1 mps 756 mmHg 71%
08:00 +15°C° 0 mm 1 mps 756 mmHg 65%
09:00 +16°C° 0 mm 1 mps 756 mmHg 59%
10:00 +17°C° 0 mm 2 mps 756 mmHg 55%
11:00 +18°C° 0 mm 2 mps 756 mmHg 51%
12:00 +19°C° 0 mm 2 mps 756 mmHg 47%
13:00 +20°C° 0 mm 2 mps 756 mmHg 43%
14:00 +20°C° 0 mm 3 mps 756 mmHg 40%
15:00 +21°C° 0 mm 3 mps 756 mmHg 36%
16:00 +20°C° 0 mm 3 mps 755 mmHg 39%
17:00 +19°C° 0 mm 2 mps 755 mmHg 42%
18:00 +19°C° 0 mm 2 mps 755 mmHg 46%
19:00 +17°C° 0 mm 2 mps 755 mmHg 48%
20:00 +16°C° 0 mm 1 mps 756 mmHg 50%
21:00 +15°C° 0 mm 1 mps 756 mmHg 53%
22:00 +13°C° 0 mm 3 mps 756 mmHg 61%
23:00 +12°C° 0 mm 5 mps 756 mmHg 69%

17 April, Saturday

Time Temperature Precipitation Wind Pressure Humidity
00:00 +10°C° 0 mm 6 mps 756 mmHg 77%
01:00 +10°C° 1.5 mm 5 mps 756 mmHg 82%
02:00 +10°C° 1.5 mm 4 mps 756 mmHg 87%
03:00 +10°C° 1.5 mm 3 mps 756 mmHg 92%
04:00 +10°C° 0.6 mm 3 mps 756 mmHg 92%
05:00 +10°C° 0.6 mm 3 mps 756 mmHg 91%
06:00 +10°C° 0.6 mm 3 mps 756 mmHg 91%
07:00 +10°C° 0.2 mm 3 mps 757 mmHg 87%
08:00 +10°C° 0.2 mm 3 mps 757 mmHg 83%
09:00 +10°C° 0.2 mm 3 mps 758 mmHg 79%
10:00 +11°C° 0 mm 3 mps 758 mmHg 70%
11:00 +13°C° 0 mm 3 mps 758 mmHg 61%
12:00 +14°C° 0 mm 3 mps 758 mmHg 52%
13:00 +14°C° 0 mm 3 mps 758 mmHg 50%
14:00 +14°C° 0 mm 3 mps 758 mmHg 48%
15:00 +16°C° 0 mm 3 mps 758 mmHg 46%
16:00 +14°C° 0 mm 3 mps 758 mmHg 48%
17:00 +14°C° 0 mm 3 mps 758 mmHg 51%
18:00 +13°C° 0 mm 3 mps 758 mmHg 53%
19:00 +13°C° 0 mm 2 mps 758 mmHg 57%
20:00 +12°C° 0 mm 2 mps 759 mmHg 61%
21:00 +10°C° 0 mm 2 mps 759 mmHg 64%
22:00 +10°C° 0 mm 1 mps 759 mmHg 66%
23:00 +10°C° 0 mm 1 mps 759 mmHg 67%

18 April, Sunday

Time Temperature Precipitation Wind Pressure Humidity
00:00 +10°C° 0 mm 1 mps 759 mmHg 68%
01:00 +10°C° 0 mm 1 mps 759 mmHg 69%
02:00 +9°C° 0 mm 1 mps 759 mmHg 70%
03:00 +8°C° 0 mm 0 mps 759 mmHg 71%
04:00 +8°C° 0 mm 0 mps 759 mmHg 71%
05:00 +9°C° 0 mm 1 mps 759 mmHg 71%
06:00 +9°C° 0 mm 1 mps 759 mmHg 71%
07:00 +11°C° 0 mm 1 mps 759 mmHg 65%
08:00 +12°C° 0 mm 1 mps 759 mmHg 59%
09:00 +14°C° 0 mm 1 mps 759 mmHg 52%
10:00 +15°C° 0 mm 1 mps 758 mmHg 49%
11:00 +16°C° 0 mm 1 mps 758 mmHg 45%
12:00 +18°C° 0 mm 1 mps 758 mmHg 41%
13:00 +18°C° 0 mm 1 mps 758 mmHg 41%
14:00 +18°C° 0 mm 1 mps 758 mmHg 41%
15:00 +17°C° 0 mm 2 mps 758 mmHg 41%
16:00 +16°C° 0 mm 2 mps 758 mmHg 46%
17:00 +16°C° 0 mm 2 mps 758 mmHg 51%
18:00 +14°C° 0 mm 3 mps 758 mmHg 56%
19:00 +13°C° 0 mm 3 mps 758 mmHg 61%
20:00 +12°C° 0 mm 4 mps 759 mmHg 67%
21:00 +11°C° 0 mm 4 mps 759 mmHg 73%
22:00 +10°C° 0.1 mm 4 mps 759 mmHg 76%
23:00 +10°C° 0.1 mm 4 mps 759 mmHg 80%

19 April, Monday

Time Temperature Precipitation Wind Pressure Humidity
00:00 +9°C° 0.1 mm 3 mps 759 mmHg 84%
01:00 +9°C° 0.6 mm 3 mps 759 mmHg 86%
02:00 +9°C° 0.6 mm 3 mps 759 mmHg 88%
03:00 +8°C° 0.6 mm 2 mps 759 mmHg 90%
04:00 +8°C° 0.5 mm 2 mps 759 mmHg 90%
05:00 +8°C° 0.5 mm 2 mps 759 mmHg 90%
06:00 +8°C° 0.5 mm 2 mps 759 mmHg 90%
07:00 +9°C° 0.1 mm 3 mps 760 mmHg 87%
08:00 +8°C° 0.1 mm 4 mps 760 mmHg 84%
09:00 +9°C° 0.1 mm 6 mps 760 mmHg 82%
10:00 +9°C° 0.2 mm 6 mps 761 mmHg 80%
11:00 +9°C° 0.2 mm 7 mps 761 mmHg 79%
12:00 +9°C° 0.2 mm 7 mps 762 mmHg 77%
13:00 +8°C° 0 mm 7 mps 762 mmHg 76%
14:00 +8°C° 0 mm 7 mps 762 mmHg 75%
15:00 +8°C° 0 mm 7 mps 762 mmHg 74%
16:00 +9°C° 0 mm 6 mps 762 mmHg 71%
17:00 +9°C° 0 mm 5 mps 763 mmHg 67%
18:00 +10°C° 0 mm 5 mps 763 mmHg 64%
19:00 +10°C° 0 mm 4 mps 763 mmHg 64%
20:00 +8°C° 0 mm 4 mps 763 mmHg 64%
21:00 +6°C° 0 mm 4 mps 764 mmHg 63%
22:00 +6°C° 0 mm 5 mps 763 mmHg 64%
23:00 +5°C° 0 mm 5 mps 763 mmHg 65%
Show more